Meteo pe oră la Dabeiba

Astăzi, 23 Aprilie, Vineri

Timp Temperatura Precipitaţii Vânt Presiune Umiditate
00:00 +20°C° 0.2 mm 0 m/s 686 mmHg 97%
01:00 +20°C° 0.2 mm 0 m/s 685 mmHg 97%
02:00 +20°C° 0.1 mm 0 m/s 685 mmHg 97%
03:00 +20°C° 0.1 mm 0 m/s 685 mmHg 97%
04:00 +19°C° 0.1 mm 0 m/s 685 mmHg 97%
05:00 +20°C° 0.2 mm 0 m/s 685 mmHg 96%
06:00 +20°C° 0.2 mm 0 m/s 686 mmHg 95%
07:00 +21°C° 0.2 mm 0 m/s 686 mmHg 94%
08:00 +22°C° 0.3 mm 0 m/s 686 mmHg 88%
09:00 +26°C° 0.3 mm 1 m/s 687 mmHg 82%
10:00 +28°C° 0.3 mm 1 m/s 687 mmHg 75%
11:00 +28°C° 1.4 mm 1 m/s 687 mmHg 78%
12:00 +27°C° 1.4 mm 1 m/s 686 mmHg 82%
13:00 +27°C° 1.4 mm 1 m/s 686 mmHg 85%
14:00 +27°C° 1.7 mm 1 m/s 685 mmHg 87%
15:00 +26°C° 1.7 mm 1 m/s 685 mmHg 88%
16:00 +26°C° 1.7 mm 1 m/s 685 mmHg 90%
17:00 +25°C° 1.8 mm 1 m/s 685 mmHg 92%
18:00 +24°C° 1.8 mm 1 m/s 685 mmHg 95%
19:00 +20°C° 1.8 mm 0 m/s 685 mmHg 97%
20:00 +20°C° 0.9 mm 0 m/s 686 mmHg 97%
21:00 +20°C° 0.9 mm 0 m/s 686 mmHg 97%
22:00 +20°C° 0.9 mm 0 m/s 687 mmHg 97%
23:00 +20°C° 0.3 mm 0 m/s 686 mmHg 97%

Mâine, 24 Aprilie, Sâmbătă

Timp Temperatura Precipitaţii Vânt Presiune Umiditate
00:00 +20°C° 0.3 mm 0 m/s 686 mmHg 97%
01:00 +20°C° 0.3 mm 0 m/s 686 mmHg 97%
02:00 +20°C° 0.2 mm 0 m/s 686 mmHg 97%
03:00 +20°C° 0.2 mm 0 m/s 686 mmHg 96%
04:00 +20°C° 0.2 mm 0 m/s 685 mmHg 96%
05:00 +20°C° 0 mm 0 m/s 686 mmHg 95%
06:00 +21°C° 0 mm 0 m/s 686 mmHg 95%
07:00 +21°C° 0 mm 0 m/s 687 mmHg 94%
08:00 +22°C° 0.2 mm 0 m/s 687 mmHg 89%
09:00 +26°C° 0.2 mm 1 m/s 687 mmHg 84%
10:00 +27°C° 0.2 mm 1 m/s 688 mmHg 78%
11:00 +27°C° 1.1 mm 1 m/s 687 mmHg 80%
12:00 +27°C° 1.1 mm 1 m/s 687 mmHg 83%
13:00 +27°C° 1.1 mm 1 m/s 686 mmHg 85%
14:00 +26°C° 1.4 mm 1 m/s 686 mmHg 87%
15:00 +26°C° 1.4 mm 1 m/s 685 mmHg 88%
16:00 +26°C° 1.4 mm 1 m/s 685 mmHg 90%
17:00 +23°C° 0.9 mm 0 m/s 685 mmHg 92%
18:00 +22°C° 0.9 mm 0 m/s 685 mmHg 94%
19:00 +21°C° 0.9 mm 0 m/s 686 mmHg 97%
20:00 +21°C° 0.1 mm 0 m/s 686 mmHg 96%
21:00 +20°C° 0.1 mm 0 m/s 686 mmHg 95%
22:00 +20°C° 0.1 mm 0 m/s 687 mmHg 94%
23:00 +20°C° 0 mm 0 m/s 686 mmHg 95%

Poimâine, 25 Aprilie, Duminică

Timp Temperatura Precipitaţii Vânt Presiune Umiditate
00:00 +20°C° 0 mm 0 m/s 686 mmHg 95%
01:00 +19°C° 0 mm 0 m/s 685 mmHg 95%
02:00 +21°C° 0 mm 1 m/s 685 mmHg 95%
03:00 +21°C° 0 mm 1 m/s 685 mmHg 95%
04:00 +21°C° 0 mm 1 m/s 685 mmHg 95%
05:00 +21°C° 0 mm 1 m/s 685 mmHg 94%
06:00 +20°C° 0 mm 0 m/s 686 mmHg 93%
07:00 +20°C° 0 mm 0 m/s 686 mmHg 92%
08:00 +24°C° 0 mm 1 m/s 687 mmHg 84%
09:00 +26°C° 0 mm 1 m/s 687 mmHg 76%
10:00 +28°C° 0 mm 1 m/s 688 mmHg 68%
11:00 +28°C° 0.5 mm 1 m/s 687 mmHg 70%
12:00 +28°C° 0.5 mm 1 m/s 686 mmHg 71%
13:00 +29°C° 0.5 mm 1 m/s 686 mmHg 73%
14:00 +28°C° 0.9 mm 1 m/s 685 mmHg 77%
15:00 +27°C° 0.9 mm 1 m/s 685 mmHg 81%
16:00 +27°C° 0.9 mm 1 m/s 684 mmHg 85%
17:00 +25°C° 0.7 mm 1 m/s 685 mmHg 89%
18:00 +22°C° 0.7 mm 0 m/s 685 mmHg 93%
19:00 +21°C° 0.7 mm 0 m/s 685 mmHg 96%
20:00 +21°C° 0.1 mm 0 m/s 686 mmHg 96%
21:00 +21°C° 0.1 mm 0 m/s 686 mmHg 96%
22:00 +21°C° 0.1 mm 0 m/s 686 mmHg 96%
23:00 +21°C° 0.1 mm 0 m/s 686 mmHg 96%

26 Aprilie, Luni

Timp Temperatura Precipitaţii Vânt Presiune Umiditate
00:00 +21°C° 0.1 mm 0 m/s 686 mmHg 96%
01:00 +21°C° 0.1 mm 0 m/s 685 mmHg 97%
02:00 +20°C° 0.1 mm 0 m/s 685 mmHg 97%
03:00 +20°C° 0.1 mm 0 m/s 685 mmHg 97%
04:00 +20°C° 0.1 mm 0 m/s 685 mmHg 97%
05:00 +20°C° 0 mm 0 m/s 685 mmHg 96%
06:00 +21°C° 0 mm 0 m/s 685 mmHg 95%
07:00 +21°C° 0 mm 0 m/s 686 mmHg 94%
08:00 +23°C° 0.2 mm 0 m/s 686 mmHg 87%
09:00 +26°C° 0.2 mm 1 m/s 686 mmHg 80%
10:00 +28°C° 0.2 mm 1 m/s 687 mmHg 73%
11:00 +28°C° 1.1 mm 1 m/s 686 mmHg 76%
12:00 +28°C° 1.1 mm 1 m/s 685 mmHg 79%
13:00 +28°C° 1.1 mm 1 m/s 685 mmHg 81%
14:00 +27°C° 1.2 mm 1 m/s 684 mmHg 84%
15:00 +26°C° 1.2 mm 1 m/s 684 mmHg 87%
16:00 +26°C° 1.2 mm 1 m/s 684 mmHg 90%
17:00 +25°C° 1 mm 1 m/s 684 mmHg 92%
18:00 +22°C° 1 mm 0 m/s 684 mmHg 95%
19:00 +21°C° 1 mm 0 m/s 685 mmHg 97%
20:00 +21°C° 0.3 mm 0 m/s 685 mmHg 97%
21:00 +21°C° 0.3 mm 0 m/s 686 mmHg 96%
22:00 +21°C° 0.3 mm 0 m/s 686 mmHg 96%
23:00 +21°C° 0.3 mm 0 m/s 686 mmHg 96%

27 Aprilie, Marţi

Timp Temperatura Precipitaţii Vânt Presiune Umiditate
00:00 +21°C° 0.3 mm 0 m/s 685 mmHg 96%
01:00 +20°C° 0.3 mm 0 m/s 685 mmHg 97%
02:00 +20°C° 0.1 mm 0 m/s 685 mmHg 97%
03:00 +20°C° 0.1 mm 0 m/s 685 mmHg 97%
04:00 +20°C° 0.1 mm 0 m/s 685 mmHg 97%
05:00 +21°C° 0.2 mm 0 m/s 685 mmHg 96%
06:00 +21°C° 0.2 mm 0 m/s 685 mmHg 96%
07:00 +21°C° 0.2 mm 0 m/s 686 mmHg 95%
08:00 +22°C° 0.8 mm 0 m/s 686 mmHg 93%
09:00 +25°C° 0.8 mm 1 m/s 686 mmHg 91%
10:00 +25°C° 0.8 mm 1 m/s 686 mmHg 89%
11:00 +26°C° 1.6 mm 1 m/s 686 mmHg 89%
12:00 +26°C° 1.6 mm 1 m/s 685 mmHg 90%
13:00 +26°C° 1.6 mm 1 m/s 685 mmHg 91%
14:00 +25°C° 1.8 mm 1 m/s 685 mmHg 92%
15:00 +25°C° 1.8 mm 1 m/s 684 mmHg 93%
16:00 +25°C° 1.8 mm 1 m/s 684 mmHg 94%
17:00 +24°C° 1.3 mm 1 m/s 684 mmHg 95%
18:00 +21°C° 1.3 mm 0 m/s 685 mmHg 97%
19:00 +21°C° 1.3 mm 0 m/s 685 mmHg 98%
20:00 +20°C° 0.5 mm 0 m/s 685 mmHg 98%
21:00 +20°C° 0.5 mm 0 m/s 686 mmHg 98%
22:00 +20°C° 0.5 mm 0 m/s 686 mmHg 98%
23:00 +20°C° 0.8 mm 0 m/s 686 mmHg 98%

28 Aprilie, Miercuri

Timp Temperatura Precipitaţii Vânt Presiune Umiditate
00:00 +20°C° 0.8 mm 0 m/s 685 mmHg 99%
01:00 +20°C° 0.8 mm 0 m/s 685 mmHg 99%
02:00 +20°C° 2.1 mm 0 m/s 685 mmHg 99%
03:00 +20°C° 2.1 mm 0 m/s 685 mmHg 99%
04:00 +20°C° 2.1 mm 0 m/s 685 mmHg 99%
05:00 +20°C° 1.7 mm 0 m/s 685 mmHg 99%
06:00 +20°C° 1.7 mm 0 m/s 685 mmHg 99%
07:00 +20°C° 1.7 mm 0 m/s 686 mmHg 99%
08:00 +20°C° 2.1 mm 0 m/s 686 mmHg 98%
09:00 +20°C° 2.1 mm 0 m/s 687 mmHg 98%
10:00 +22°C° 2.1 mm 1 m/s 687 mmHg 97%
11:00 +22°C° 2 mm 1 m/s 687 mmHg 97%
12:00 +22°C° 2 mm 1 m/s 686 mmHg 97%
13:00 +22°C° 2 mm 1 m/s 686 mmHg 97%
14:00 +22°C° 0.6 mm 1 m/s 686 mmHg 96%
15:00 +23°C° 0.6 mm 1 m/s 686 mmHg 95%
16:00 +23°C° 0.6 mm 1 m/s 685 mmHg 95%
17:00 +22°C° 0.4 mm 1 m/s 686 mmHg 96%
18:00 +21°C° 0.4 mm 1 m/s 686 mmHg 97%
19:00 +21°C° 0.4 mm 1 m/s 687 mmHg 98%
20:00 +21°C° 0 mm 1 m/s 687 mmHg 97%
21:00 +21°C° 0 mm 1 m/s 687 mmHg 96%
22:00 +21°C° 0 mm 1 m/s 687 mmHg 95%
23:00 +21°C° 0.1 mm 1 m/s 687 mmHg 95%
Arată mai mult

Formular de consimțământ

Meteoprog și furnizorii noștri de servicii pot stoca și accesa date personale, precum cookies, identificatori de dispozitiv sau alte tehnologii similare pe dispozitivul dumneavoastră și procesa astfel de date pentru a personaliza conținutul și reclamele, dar și pentru a oferi caracteristici de social media și pentru a analiza traficul.

  • Stocarea și/sau accesarea informațiilor pe dispozitivul dumneavoastră

    Cookies, identificatori de dispozitiv sau alte informații pot fi stocate sau accesate pe dispozitiv în scopurile indicate mai sus.

  • Reclame și conținut personalizat, evaluarea reclamelor și a conținutului, informații despre audiențe și dezvoltarea produselor

    Reclamele și conținutul pot fi personalizate pe baza unui profil. Pot fi adăugate date suplimentare pentru a personaliza mai bine reclamele și conținutul. Performanța reclamelor și conținutului poate fi măsurată. Pot fi obținute informații despre utilizatorii care au văzut reclamele și conținutul. Aceste date pot fi utilizate pentru a dezvolta sau îmbunătăți experiența utilizatorilor, sistemele și software-ul.

Dând clic pe ‘Sunt de acord’, permiteți utilizarea cookie-urilor menționate, a identificatorilor de dispozitiv, balizelor web sau altor tehnologii similare. Setările pot fi modificate din browser-ul dispozitivului dumneavoastră.

În anumite scopuri, interesele legitime pot prima asupra consimțământului. Puteți citi mai multe informații în acest sens în Politica privind Confidențialitatea Datelor și Cookie.